Location: Albany
(35.0170°S, 117.8920°E)
Time: 11:40:00
(UTC+08:00)

Explorer 11/Cluster Stage 4 - Pass Details

Date: 29 January 2021
Orbit: 467 x 1257 km, 28.8° (Epoch: 03 March)

Event Time Altitude Azimuth Distance (km) Brightness Sun altitude
Exits shadow 04:13:56 - 345° (NNW) 3,562 9.5 -13.6°
Reaches altitude 10° 04:15:52 10° 356° (N) 3,172 9.3 -13.2°
Maximum altitude 04:20:02 15° 27° (NNE) 2,719 9.3 -12.5°
Drops below altitude 10° 04:23:59 10° 59° (ENE) 2,980 9.9 -11.8°
Sets 04:27:57 0° 81° (E) 3,791 10.9 -11.1°
